[[{"header":{"parameterUnit":"m.s-1","parameterCategory":1,"la1":30.2991,"la2":30.254,"lo1":-89.0895,"lo2":-89.0444,"dy":0.0017,"dx":0.0017,"nx":28,"ny":28,"refTime":"2023-10-02T21:00:00:Z","depth":0,"parameterNumber":2,"parameterNumberName":"U-component_of_WINDS"},"data":[0,0,0,0,0,0,0,0,0,0,0,0,0,0,0,0,0,0,0,0,0,0,0,0,0,0,0,0,0,0,0,0,0,0,0,0,0,0,0,0,0,0,0,0,0,0,0,0,0,0,0,0,0,0,0,0,0,0,-4.067,-4.067,0,-4.0635,-4.0635,-4.0634,-4.0515,-4.0512,-4.0509,-4.0507,-4.0474,-4.0475,-4.0477,0,0,0,0,0,0,0,0,0,0,0,0,0,-4.064,-4.0641,-4.067,-4.067,-4.0669,-4.0635,-4.0634,-4.0634,-4.0515,-4.0512,-4.0509,-4.0505,-4.0473,-4.0475,-4.0477,0,0,0,0,0,0,0,0,0,0,0,0,0,-4.0634,-4.0641,-4.067,-4.0606,-4.06,-4.0635,-4.0634,-4.0634,-4.0516,-4.0512,-4.0508,-4.0504,-4.0472,-4.0475,-4.0477,-4.0573,0,0,-4.0485,-4.0486,0,0,0,0,0,0,0,0,-4.0634,-4.0635,-4.0616,-4.061,-4.0603,-4.0575,-4.0611,-4.0614,-4.0517,-4.0548,-4.0507,-4.0502,-4.0511,-4.051,-4.0512,-4.0572,-4.057,-4.0485,-4.0486,-4.0487,-4.0488,0,0,0,0,0,0,0,-4.0635,-4.0636,-4.0656,-4.0616,-4.0608,-4.058,-4.0575,-4.0611,-4.0552,-4.0545,-4.0536,-4.0533,-4.0507,-4.051,-4.0511,-4.057,-4.0485,-4.0487,-4.0488,-4.0489,-4.0709,-4.0713,0,0,0,0,0,0,-4.0644,-4.0637,-4.0657,-4.0655,-4.0609,-4.0584,-4.0578,-4.0588,-4.0552,-4.0542,-4.0537,-4.0528,-4.0508,-4.0508,-4.0509,-4.062,-4.0487,-4.049,-4.0491,-4.0705,-4.071,-4.0715,0,0,0,0,0,0,-4.0644,-4.0647,-4.0659,-4.0644,-4.0643,-4.0589,-4.0601,-4.059,-4.0593,-4.0546,-4.0535,-4.0551,-4.0505,-4.0505,-4.0558,-4.0617,-4.0491,-4.0493,-4.0699,-4.0706,-4.0712,-4.0842,0,0,0,0,0,0,-4.0643,-4.0647,-4.0682,-4.0645,-4.0644,-4.0708,-4.0605,-4.0592,-4.0597,-4.0585,-4.0556,-4.0547,-4.0502,-4.0555,-4.0561,-4.0618,-4.0495,-4.0694,-4.0702,-4.071,-4.0832,-4.0852,-4.0869,0,0,0,0,0,-4.0643,-4.072,-4.0684,-4.0687,-4.0686,-4.0711,-4.0711,-4.0656,-4.0602,-4.0637,-4.0608,-4.0548,-4.061,-4.0562,-4.0567,-4.0626,-4.069,-4.07,-4.071,-4.0824,-4.0848,-4.0869,0,0,0,0,0,0,-4.0764,-4.0714,-4.0673,-4.0741,-4.0731,-4.0691,-4.0733,-4.0683,-4.0689,-4.0678,-4.061,-4.0605,-4.0668,-4.0652,-4.0599,-4.0718,-4.064,-4.0652,-4.0726,-4.0748,-4.0767,-4.0769,-4.0497,0,0,0,0,0,-4.0799,-4.0823,-4.0777,-4.0842,-4.0839,-4.0788,-4.0796,-4.0755,-4.0743,-4.0738,-4.0712,-4.0704,-4.0721,-4.0734,-4.0748,-4.083,-4.0823,-4.0874,-4.0892,-4.0908,-4.0918,-4.0963,-4.0985,-4.0747,-4.0747,-4.0747,0,0,-4.0871,-4.0846,-4.0865,-4.0866,-4.0853,-4.0881,-4.0785,-4.0817,-4.0837,-4.0743,-4.0791,-4.0773,-4.0759,-4.0828,-4.0857,-4.0817,-4.0983,-4.092,-4.0933,-4.0934,-4.0975,-4.0998,-4.1018,-4.0754,-4.0752,-4.0751,0,0,-4.1016,-4.0999,-4.1051,-4.1041,-4.1024,-4.099,-4.1003,-4.0971,-4.0955,-4.1002,-4.0933,-4.0958,-4.0989,-4.0982,-4.0983,-4.1131,-4.1077,-4.1137,-4.1233,-4.1278,-4.1297,-4.1313,-4.1366,-4.1386,-4.1148,-4.1148,-4.1149,0,-4.1107,-4.1144,-4.1085,-4.1122,-4.1125,-4.1042,-4.1096,-4.109,-4.1079,-4.1084,-4.1039,-4.1078,-4.1063,-4.113,-4.1167,-4.117,-4.1184,-4.1139,-4.1299,-4.1314,-4.1329,-4.1379,-4.1399,-4.1156,-4.1155,-4.1154,-4.1153,0,-4.1258,-4.1286,-4.133,-4.1321,-4.133,-4.1375,-4.1325,-4.1341,-4.1301,-4.1272,-4.1324,-4.1303,-4.1312,-4.1325,-4.1286,-4.1388,-4.1364,-4.131,-4.123,-4.136,-4.1406,-4.1424,-4.1166,-4.1164,-4.1161,-4.116,0,0,-4.1475,-4.1435,-4.1453,-4.1449,-4.1425,-4.1446,-4.149,-4.1498,-4.1514,-4.1511,-4.1546,-4.1577,-4.1528,-4.1529,-4.1489,-4.1528,-4.1648,-4.147,-4.1468,-4.1504,-4.1761,-4.1801,-4.1824,-4.1613,-4.1616,-4.1619,-4.1762,0,-4.1613,-4.1682,-4.1632,-4.1712,-4.1737,-4.1661,-4.1699,-4.1691,-4.1667,-4.1686,-4.166,-4.1683,-4.1616,-4.1617,-4.1652,-4.1626,-4.1698,-4.1615,-4.1646,-4.1648,-4.1651,-4.1847,-4.1889,-4.2025,-4.178,-4.1783,-4.1785,0,-4.1781,-4.1785,-4.1868,-4.1841,-4.185,-4.1885,-4.189,-4.191,-4.19,-4.188,-4.1884,-4.1834,-4.1877,-4.1801,-4.186,-4.1805,-4.1815,-4.1805,-4.1809,-4.1809,-4.1723,-4.1853,-4.2067,-4.2087,-4.1812,-4.181,-4.1808,0,-4.1932,-4.1958,-4.2011,-4.201,-4.1981,-4.2008,-4.1997,-4.1983,-4.1993,-4.1998,-4.2004,-4.2015,-4.2021,-4.2032,-4.1988,-4.1936,-4.2054,-4.1973,-4.204,-4.2041,-4.2066,-4.2065,-4.2285,-4.2075,-4.2075,-4.2074,-4.2074,0,-4.209,-4.2143,-4.2079,-4.2111,-4.217,-4.2113,-4.2173,-4.2155,-4.2144,-4.2173,-4.2109,-4.2138,-4.2078,-4.2103,-4.2069,-4.2124,-4.2128,-4.2114,-4.2104,-4.2119,-4.2121,-4.2124,-4.2113,-4.208,-4.2078,-4.2077,-4.2077,0,-4.2267,-4.2226,-4.2278,-4.2248,-4.2241,-4.2286,-4.226,-4.229,-4.2263,-4.2301,-4.2307,-4.2265,-4.229,-4.2248,-4.2268,-4.2246,-4.2323,-4.2299,-4.2326,-4.2319,-4.2388,-4.2382,-4.2616,-4.2645,-4.2418,-4.242,-4.2422,0,-4.237,-4.2409,-4.2383,-4.2398,-4.2391,-4.2416,-4.2425,-4.2373,-4.2385,-4.2379,-4.2411,-4.2431,-4.2443,-4.2488,-4.246,-4.2476,-4.2451,-4.2533,-4.2453,-4.2468,-4.2453,-4.2451,-4.2455,-4.2548,-4.2551,-4.2553,-4.2555,0,-4.2557,-4.2536,-4.2551,-4.2561,-4.2574,-4.258,-4.258,-4.2597,-4.2542,-4.256,-4.2585,-4.2595,-4.2616,-4.2637,-4.2647,-4.2638,-4.2589,-4.2581,-4.2597,-4.2612,-4.2626,-4.262,-4.237,-4.2575,-4.2573,-4.2572,-4.2571,-4.257,-4.27,-4.2732,-4.272,-4.274,-4.2736,-4.2739,-4.2766,-4.2743,-4.2762,-4.2775,-4.2744,-4.2777,-4.2769,-4.2777,-4.2774,-4.28,-4.2764,-4.2788,-4.2794,-4.28,-4.2811,-4.2624,-4.2802,-4.2801,-4.2801,-4.28,-4.28,0,-4.2884,-4.2873,-4.2892,-4.2896,-4.2913,-4.2865,-4.2865,-4.2883,-4.2912,-4.2909,-4.2923,-4.2954,-4.2975,-4.295,-4.2967,-4.2994,-4.2972,-4.3,-4.2997,-4.2996,-4.2842,-4.2826,-4.3018,-4.3018,-4.3017,-4.3017,-4.3017,-4.3017,-4.2981,-4.3034,-4.3012,-4.3063,-4.3052,-4.3083,-4.3087,-4.309,-4.3088,-4.3124,-4.3141,-4.3125,-4.3114,-4.313,-4.3149,-4.3141,-4.3151,-4.3187,-4.3172,-4.3028,-4.3007,-4.2986,-4.2971,-4.319,-4.319,-4.3323,-4.3325,-4.3326]},{"header":{"parameterUnit":"m.s-1","parameterCategory":1,"la1":30.2991,"la2":30.254,"lo1":-89.0895,"lo2":-89.0444,"dy":0.0017,"dx":0.0017,"nx":28,"ny":28,"refTime":"2023-10-02T21:00:00:Z","depth":0,"parameterNumber":3,"parameterNumberName":"V-component_of_WINDS"},"data":[0,0,0,0,0,0,0,0,0,0,0,0,0,0,0,0,0,0,0,0,0,0,0,0,0,0,0,0,0,0,0,0,0,0,0,0,0,0,0,0,0,0,0,0,0,0,0,0,0,0,0,0,0,0,0,0,0,0,2.3134,2.3134,0,2.3121,2.312,2.312,2.3162,2.3163,2.3164,2.3166,2.3143,2.3141,2.314,0,0,0,0,0,0,0,0,0,0,0,0,0,2.3189,2.3187,2.3134,2.3134,2.3134,2.3121,2.312,2.312,2.3162,2.3163,2.3165,2.3166,2.3144,2.3142,2.3139,0,0,0,0,0,0,0,0,0,0,0,0,0,2.3169,2.3187,2.3134,2.3153,2.3155,2.3121,2.312,2.312,2.3161,2.3163,2.3165,2.3167,2.3145,2.3142,2.3139,2.3084,0,0,2.3131,2.313,0,0,0,0,0,0,0,0,2.317,2.3167,2.315,2.3152,2.3153,2.3145,2.3131,2.3108,2.3161,2.3158,2.3166,2.3168,2.3142,2.3139,2.3132,2.3082,2.3082,2.3131,2.3129,2.3128,2.3127,0,0,0,0,0,0,0,2.3171,2.3167,2.3128,2.315,2.3152,2.316,2.3159,2.3127,2.3139,2.3159,2.3162,2.316,2.3143,2.3135,2.3132,2.3081,2.3131,2.3128,2.3127,2.3126,2.2985,2.2982,0,0,0,0,0,0,2.3171,2.3168,2.3129,2.3128,2.3167,2.3157,2.3157,2.3146,2.314,2.3141,2.3159,2.3162,2.3138,2.3135,2.3131,2.3065,2.3128,2.3125,2.3124,2.2987,2.2984,2.2982,0,0,0,0,0,0,2.3172,2.3167,2.3129,2.3149,2.3145,2.3154,2.3142,2.3144,2.3136,2.314,2.3141,2.3149,2.314,2.3135,2.3096,2.3065,2.3124,2.3122,2.2989,2.2986,2.2983,2.2932,0,0,0,0,0,0,2.3173,2.3167,2.3148,2.3148,2.3144,2.3096,2.314,2.3143,2.3133,2.3137,2.3131,2.3131,2.3141,2.31,2.3093,2.3062,2.312,2.2992,2.2988,2.2984,2.2937,2.2928,2.292,0,0,0,0,0,2.3175,2.3132,2.3147,2.3142,2.312,2.3094,2.3091,2.3106,2.313,2.3109,2.3112,2.3131,2.307,2.3095,2.3088,2.3056,2.2994,2.2989,2.2984,2.294,2.293,2.292,0,0,0,0,0,0,2.3124,2.3133,2.3148,2.3105,2.3099,2.3101,2.3075,2.3094,2.3078,2.3083,2.3099,2.3097,2.3054,2.3052,2.3079,2.3002,2.3036,2.3029,2.3005,2.2994,2.2986,2.2987,2.3117,0,0,0,0,0,2.3109,2.309,2.3097,2.3057,2.3054,2.3065,2.3055,2.3067,2.306,2.3057,2.3056,2.3046,2.3025,2.301,2.299,2.2938,2.2935,2.2912,2.2904,2.2897,2.289,2.2861,2.285,2.2966,2.2966,2.2966,0,0,2.3075,2.3077,2.3063,2.3047,2.3044,2.3021,2.3063,2.3037,2.3019,2.3052,2.3015,2.3014,2.3004,2.2958,2.2937,2.2954,2.2859,2.2891,2.2886,2.2882,2.2855,2.2844,2.2834,2.2963,2.2963,2.2964,0,0,2.3001,2.3002,2.2969,2.2966,2.2962,2.297,2.2962,2.2962,2.2964,2.2928,2.2952,2.293,2.2893,2.2885,2.2876,2.2802,2.2818,2.2795,2.275,2.2722,2.2712,2.2704,2.2676,2.2666,2.2789,2.2788,2.2788,0,2.2958,2.2928,2.2949,2.2922,2.2914,2.2946,2.2912,2.2906,2.2895,2.2887,2.2907,2.2862,2.2858,2.2809,2.2792,2.2784,2.2773,2.2794,2.2713,2.2705,2.2697,2.267,2.266,2.2785,2.2786,2.2786,2.2786,0,2.2875,2.2853,2.2827,2.2818,2.2807,2.2776,2.2791,2.2777,2.2791,2.2796,2.2758,2.2755,2.2735,2.2725,2.2737,2.2678,2.2689,2.2711,2.2744,2.2683,2.2658,2.2648,2.2781,2.2782,2.2783,2.2784,0,0,2.2765,2.2771,2.2761,2.2757,2.2756,2.2738,2.2709,2.2693,2.2679,2.2671,2.2645,2.2614,2.2635,2.2625,2.2636,2.2611,2.2551,2.2636,2.2636,2.2619,2.2484,2.2466,2.2454,2.2564,2.2562,2.256,2.2484,0,2.2692,2.2644,2.2663,2.2613,2.2592,2.2623,2.2597,2.2592,2.2597,2.2578,2.2582,2.256,2.259,2.2584,2.2561,2.2563,2.2523,2.2569,2.2536,2.2535,2.2535,2.2441,2.2421,2.2349,2.2474,2.2473,2.2472,0,2.2599,2.259,2.2538,2.2541,2.2533,2.251,2.2496,2.2479,2.2474,2.2479,2.2469,2.2486,2.2455,2.2491,2.2447,2.2478,2.2466,2.2465,2.2462,2.2458,2.2498,2.2431,2.2327,2.2315,2.2457,2.2458,2.2459,0,2.2522,2.2497,2.2463,2.2459,2.2462,2.2445,2.2444,2.2442,2.2431,2.2419,2.2411,2.2395,2.2385,2.237,2.2382,2.2408,2.2335,2.2373,2.2336,2.2335,2.2317,2.2317,2.2207,2.2313,2.2313,2.2313,2.2314,0,2.2437,2.2403,2.2429,2.2407,2.237,2.2392,2.2354,2.2357,2.2354,2.2332,2.2358,2.2336,2.2354,2.2333,2.2342,2.2303,2.2299,2.23,2.2302,2.2296,2.2296,2.2286,2.2291,2.231,2.2311,2.2312,2.2312,0,2.2343,2.236,2.2324,2.2331,2.2332,2.2304,2.2309,2.2288,2.2296,2.2268,2.2262,2.2273,2.225,2.2261,2.2236,2.2242,2.2192,2.2202,2.2194,2.2196,2.2157,2.216,2.2035,2.2019,2.2138,2.2136,2.2136,0,2.2287,2.2262,2.2268,2.2256,2.2255,2.2236,2.2227,2.2247,2.2235,2.2228,2.2207,2.2188,2.2172,2.2133,2.2137,2.2118,2.2126,2.2084,2.2123,2.2118,2.2123,2.2123,2.212,2.2075,2.2074,2.2072,2.2072,0,2.2183,2.2193,2.2179,2.2168,2.2156,2.2148,2.2141,2.213,2.215,2.2135,2.2114,2.2102,2.2079,2.2057,2.2041,2.2038,2.2057,2.206,2.205,2.2042,2.2038,2.2038,2.217,2.2062,2.2063,2.2063,2.2064,2.2064,2.2105,2.2085,2.2086,2.2069,2.2068,2.2061,2.2042,2.2049,2.2032,2.2016,2.2029,2.2003,2.1998,2.1979,2.1974,2.1952,2.1968,2.1954,2.195,2.1946,2.194,2.2044,2.1949,2.1949,2.195,2.195,2.195,0,2.2001,2.2005,2.199,2.1981,2.1968,2.1992,2.1986,2.1972,2.195,2.1945,2.1931,2.1905,2.1885,2.1889,2.187,2.1852,2.186,2.1846,2.1846,2.1845,2.1927,2.1937,2.184,2.184,2.184,2.184,2.184,2.184,2.1946,2.1912,2.1922,2.1888,2.189,2.1867,2.1862,2.1855,2.1852,2.1824,2.1808,2.1812,2.181,2.1792,2.1774,2.1775,2.1766,2.1748,2.1752,2.1828,2.1839,2.1849,2.1858,2.1747,2.1746,2.1672,2.1671,2.167]}]]